Regional Weather Roundup
Issued by NWS Wakefield, VA

Home | Current Version | Previous Version | Graphics & Text | Print | Product List | Glossary On
Versions: 1 2 3 4 5 6 7 8 9 10 11 12 13 14 15 16 17 18 19 20 21 22 23 24 25 26 27 28 29 30 31 32 33 34 35 36 37 38 39 40 41 42 43 44 45 46 47 48 49 50
739
ASUS41 KAKQ 192215
RWRAKQ

REGIONAL WEATHER ROUNDUP
NATIONAL WEATHER SERVICE WAKEFIELD VA
600 PM EDT THU APR 19 2018

Note: "fair" indicates few or no clouds below 12,000 feet with no
significant weather and/or obstructions to visibility. * = Denotes
station may not report precipitation (e.g., rain,snow,etc.),
thunder or fog.

VAZ042-051-052>054-056-192300-
NORTHERN VIRGINIA

CITY           SKY/WX    TMP DP  RH WIND       PRES   REMARKS
WASH NATIONAL  FAIR      51  26  37 NW24G39   30.01R
DULLES         PTSUNNY   47  27  45 NW20G36   30.04R
FORT BELVOIR   FAIR      50  26  39 NW21G32   30.01R
QUANTICO       FAIR      52  29  41 N25G37    30.04R
FREDERICKSBRG* FAIR      55  32  40 NW23G32   29.99R
STAFFORD*      FAIR      53  30  41 NW25G35   30.04R
WARRENTON      FAIR      51  24  35 NW21G30   30.03R
CULPEPER*      CLOUDY    50  27  40 N18       30.05R
MANASSAS*      FAIR      48  28  46 NW28G39   30.03R
LEESBURG*      CLOUDY    46  32  57 NW24G32   30.06R
WINCHESTER     CLOUDY    41  28  60 NW15      30.08R
FRONT ROYAL*   CLOUDY    45  28  53 NW12G23   30.06R
LURAY*         MOCLDY    46  28  49 NW13G22   30.06R
$$

VAZ048-049-060>072-079>083-192300-
CENTRAL AND SOUTH CENTRAL VIRGINIA

CITY           SKY/WX    TMP DP  RH WIND       PRES   REMARKS
RICHMOND       FAIR      60  29  30 NW22G36   29.96R
CHESTERFIELD*  FAIR      59  29  31 NW16G29   29.98R
PETERSBURG*    FAIR      60  26  27 W15G26    29.97R
HANOVER        FAIR      58  28  32 NW17G31   29.99R
TAPPAHANNOCK*  FAIR      58  30  34 NW14G28   29.97R
QUINTON*       FAIR      59  31  34 NW17G36   29.94R
CHARLOTTSVILLE FAIR      54  26  34 NW13G23   30.03R
GORDONSVILLE*  FAIR      53  28  37 NW10G24   30.02R
ORANGE*        FAIR      52  28  40 NW18G29   30.02R
LOUISA*        FAIR      55  28  34 W18G28    30.04R
BUMPASS*       FAIR      56  24  30 NW7G16    30.00R
FARMVILLE*     FAIR      57  25  29 NW9G16    30.02R
CREWE*         FAIR      56  31  37 NW21G30   30.00R
FORT PICKETT*  FAIR      58  30  35 NW23      29.99R
CHASE CITY*    FAIR      55  31  40 NW15G29   30.02R
CLARKSVILLE*   FAIR      54  32  43 NW14G31   30.03R
SOUTH HILL*    FAIR      57  31  37 NW10G23   30.04R
LAWRENCEVILLE* FAIR      59  28  31 NW14G24   29.98R
EMPORIA*       FAIR      59  32  36 W17G28    29.98R
$$

VAZ088>098-192300-
SOUTHEAST VIRGINIA

CITY           SKY/WX    TMP DP  RH WIND       PRES   REMARKS
NORFOLK        FAIR      57  45  64 NE13      29.91R
VIRGINIA BEACH PTSUNNY   58  43  57 N13       29.90R
NORFOLK NAVAL  FAIR      57  44  62 NE8       29.93R
WEST POINT*    FAIR      60  29  30 W15G23    29.94R
SALUDA*        FAIR      58  36  43 NW15G31   29.92R
NEWPORT NEWS   FAIR      63  33  32 NW18G31   29.91R
LANGLEY AFB    SUNNY     63  35  36 NW18G26   29.90R
FORT EUSTIS    FAIR      62  36  37 NW20      29.90R
WILLIAMSBURG*  FAIR      64  27  24 NW20G28   29.94R
HR EXEC AP*    FAIR      66  35  31 W10G21    29.91R
FRANKLIN*      FAIR      64  33  31 NW15G22   29.93R
US460-WAKEFLD  FAIR      63  31  30 N13G22    29.93R
$$

VAZ020-022-025-037-045-192300-
WEST CENTRAL AND SOUTHWEST VIRGINIA

CITY           SKY/WX    TMP DP  RH WIND       PRES   REMARKS
STAUNTON*      FAIR      48  29  46 NW18      30.07R
WAYNESBORO*    MOCLDY    49  27  42 NW13G23   30.04R
HOT SPRINGS VA CLOUDY    35  27  71 NW15G28   30.02R
LYNCHBURG      FAIR      50  27  40 VRB7G21   30.07R
DANVILLE       FAIR      53  31  42 NW15G29   30.09R
SOUTH BOSTON*  FAIR      54  28  37 NW24G37   30.06R
MARTINSVILLE   PTSUNNY   51  28  41 NW22G31   30.14R
ROANOKE        CLOUDY    47  28  47 NW12G28   30.13R
BLACKSBURG     CLOUDY    42  30  62 NW22      30.15R
DUBLIN*        CLOUDY    43  30  59 NW13      30.15R
MARION*        CLOUDY    41  28  58 NW18      30.17S
HILLSVILLE*    CLOUDY    40  26  57 NW16G25   30.11R
RICHLANDS*     CLOUDY    38   0  20 NW8G21    30.19R
WISE*          CLOUDY    39  30  70 NW7G16    30.22R
ABINGDON*      CLOUDY    45  29  53 N6        30.20R
$$

MDZ021>025-VAZ099-100-192300-
SOUTHERN MARYLAND AND THE DELMARVA PENINSULA

CITY           SKY/WX    TMP DP  RH WIND       PRES   REMARKS
PATUXENT RIVER FAIR      57  32  38 NW26G32   29.94R
BAY BRIDGE APT CLOUDY    48  30  49 NW22G31   29.97R
LEONARDTOWN    FAIR      52  28  40 NW13G32   29.96R
DOVER          CLOUDY    47  34  60 NW16G24   29.92R
GEORGETOWN     CLOUDY    52  34  50 NW12G22   29.92R
EASTON         MOSUNNY   50  28  43 NW20G32   29.97R
CAMBRIDGE        N/A     52  30  43 NW21G33   29.95R
SALISBURY      FAIR      55  33  43 NW15G36   29.91R
TANGIER        FAIR      55  39  54 NW26G37   29.93R
OCEAN CITY     CLOUDY    54  39  57 N20G25    29.90R
WALLOPS ISLAND FAIR      58  34  40 NW17G31   29.91R
ACCOMACK*      FAIR      57  40  53 NW18G31   29.91R
$$

NCZ012>017-030>032-192300-
NORTH CENTRAL AND EASTERN NORTH CAROLINA

CITY           SKY/WX    TMP DP  RH WIND       PRES   REMARKS
ROANOKE RAPIDS FAIR      61  34  36 NW14      29.96R
RALEIGH        FAIR      59  34  39 NW12G25   30.01R
ELIZABETH CITY CLOUDY    62  49  62 N13       29.89R
AHOSKIE*       FAIR      63  35  35 NW9       29.94R
EDENTON*       FAIR      69  41  37 NW18G29   29.91R
CURRITUCK*     NOT AVBL
KILL DEVIL HLS CLOUDY    53  45  74 NE9G17    29.90R
MANTEO         CLOUDY    54  44  68 NE23      29.92R
CAPE HATTERAS  CLOUDY    68  58  70 E6        29.82R
TARBORO*       NOT AVBL
GOLDSBORO      FAIR      70  38  30 NW21G29   29.91R
WASHINGTON     FAIR      67  38  35 N16G26    29.91R
GREENVILLE     FAIR      66  37  34 N12G26    29.94R
NEW BERN       CLOUDY    72  46  39 N22G31    29.87R
WILMINGTON     FAIR      81  48  31 W18G30    29.84R
$$

VAZ048-192300-
ELSEWHERE

CITY           SKY/WX    TMP DP  RH WIND       PRES   REMARKS
HARRISBURG PA  CLOUDY    43  27  53 NW23G31   29.99R
BALTIMORE      PTSUNNY   47  25  42 NW23G37   29.98R
ANNAPOLIS      CLOUDY    51  30  44 NW16G31   29.97R
ANDREWS AFB    FAIR      48  25  40 NW24G35   29.98R
PHILADELPHIA   CLOUDY    47  29  49 NW15      29.92R
HENDERSON NC   FAIR      53  28  37 NW17G30   30.02R
GREENSBORO     FAIR      56  29  35 NW17G25   30.06R
ROCKY MOUNT    FAIR      63  34  33 NW17G28   29.95R
$$

VAZ100-192300-
MARINE

STATION/POSITION TIME  TEMP    WIND        PRES    WAVE   SWELL
                       AIR SEA DIR/SP/G            HT/PER HT/PER
                 (UTC) (F)     (DEG/KT/KT) (MB)    (FT/S) (FT/S)
BRANDYWINE LGT   2142   48     340/ 24/ 28 1012.5R
CAPE MAY NJ      2142   48 49  330/ 22/ 33 1011.8R
LEWES DE         2142   49 49  340/ 20/ 29 1012.6R
15NM E FENWICK I 2150   46 46  320/ 19/ 23 1012.5R   5/ 5   2/ 8
OCEAN-CITY-INLET 2142   52 51  350/ 20/ 28 1012.7R
WACHAPREAGUE VA  2142   57 61  350/  7/ 15 1012.3R
THOMAS POINT MD  2200   48 50  320/ 24/ 33 1016.3R
GOOSES REEF MD   2200   51     350/ 21/ 27 1014.5
COVE POINT MD    2142   52     330/ 25/ 35 1014.5R
SOLOMONS ISLAND  2142   53 53  330/ 17/ 24 1013.9R
BISHOPS HEAD MD  2142   54 56  310/ 22/ 29 1014.2R
PINEY POINT MD   2136          340/ 31/ 37   N/A
POTOMAC MD       2200   54 52  330/ 23/ 31 1014.9    3/ 4
CAMBRIDGE MD     2142   53 54              1014.5R
LEWISETTA VA     2142   54 55  340/ 15/ 24 1013.8R
RAPPAHANNOCK LGT 2136          330/ 30/ 34 1012.8R
YORK RVR RNG VA  2136   61     330/ 26/ 31 1012.4R
YORKTOWN VA      2136   60 56  320/ 25/ 30 1012.4R
DOMINION TERM VA 2136   63     330/ 19/ 25 1012.5R
KIPTOPEKE VA     2136      55   20/ 14/ 20   N/A
CAPE HENRY VA    2136   54     360/ 14/ 17   N/A
WILLOUBY STN VA  2136   54      30/ 16/ 18 1012.7R
S CRANEY ISL VA  2136   55      50/ 11/ 13 1012.2R
CAPE HENRY BUOY  2130      50                N/A     4/ 4
64NM E OF VA BCH 2150   52 52  350/ 19/ 25 1012.5R   5/ 8   5/ 8
DUCK PIER NC     2136   51 51   20/ 19/ 25 1011.8R
44100 DUCK FRF   2145      51                N/A     3/ 3   2/13
44056 DUCK FRF   2200      49                N/A     3/ 3   2/14
OREGON INLET NC  2136   57 64   10/ 12/ 15 1011.8R
HATTERAS NC      2136   67 63   40/  7/ 11 1009.5R
DIAMOND SHLS NC  2200   67 68  260/ 19/ 23 1010.4
CAPE LOOKOUT NC  2200          230/ 14/ 21 1010.4R
$$




USA.gov is the U.S. government's official web portal to all federal, state and local government web resources and services.